MERAH PUTIH 2

Last updated on Sat Aug 15 2026 00:03:03 GMT+0000 (Coordinated Universal Time)

1 58995U 24035A 26226.30515291 -.00000373 00000+0 00000+0 0 9996 2 58995 0.0162 192.4869 0000766 305.4551 47.5600 1.00268675 9172
UTC large
Height (km)
Speed (km/s)
/
Latitude / Longitude
Inclination (degrees)
Orbital Period (minutes)
Azimuth
Elevation
Range (km)
Doppler Factor

Next 0 passes for location: London (51.5072 / 0.1276)

No passes found over London.
MERAH PUTIH 2